Flag for Spain Weather past 2 weeks in Madrid, Spain

Now
84 °F

Sunny.


Feels Like: 82 °F
Forecast: 68 / 100 °F
Wind: No wind

Location: Madrid / Cuatro Vientos

Current Time: Aug 2, 2015 at 11:14:08 PM

Latest Report: Aug 2, 2015 at 10:00 PM


Visibility: 10 mi

Pressure: 30.01 "Hg (27.86 "Hg at 658m altitude)

Humidity: 25%

Dew point: 45 °F

Location of MadridLocation

Historic Weather in Madrid — Graph

°F

Madrid temperature yesterday

Maximum temperature yesterday: 90 °F (at 4:30 PM)
Minimum temperature yesterday: 63 °F (at 7:00 AM)
Average temperature yesterday: 80 °F

Past Weeks' High & Low Weather Summary

 TemperatureHumidityPressure
High100 °F (Jul 27, 4:30 PM)78% (Aug 2, 7:00 AM)30.09 "Hg (Aug 2, 7:00 AM)
Low63 °F (Aug 1, 7:00 AM)7% (Jul 29, 6:30 PM)29.74 "Hg (Jul 31, 6:00 PM)
Average87 °F29%29.98 "Hg
* Reported Jul 18 10:00 PM — Aug 2 10:00 PM, Madrid, Weather by CustomWeather, © 2015

Note: Actual official high and low records may vary slightly from our data, if they occured in-between our weather recording intervals... More about our weather records

Advertising

Madrid weather history for previous 24 hours

 ConditionsComfort  
Time TempWeatherWind HumidityBarometerVisibility
10:00 PM
Sun, Aug 2
84 °FSunny.No wind25%30.01 "Hg10 mi
9:30 PM90 °FSunny.No wind20%30.01 "Hg10 mi
9:00 PM91 °FPassing clouds.3 mph18%30.01 "HgN/A
8:30 PM93 °FPassing clouds.7 mph17%30.01 "HgN/A
8:00 PM95 °FPassing clouds.8 mph16%30.01 "HgN/A
7:30 PM95 °FPassing clouds.7 mph15%30.01 "HgN/A
7:00 PM95 °FPassing clouds.8 mph15%30.01 "HgN/A
6:30 PM95 °FPassing clouds.8 mph15%30.01 "HgN/A
6:00 PM95 °FSunny.5 mph15%30.01 "Hg10 mi
5:30 PM95 °FPassing clouds.8 mph15%30.01 "HgN/A
5:00 PM95 °FSunny.8 mph19%30.04 "Hg10 mi
4:30 PM93 °FPassing clouds.5 mph21%30.04 "HgN/A
4:00 PM93 °FPassing clouds.6 mph21%30.04 "HgN/A
3:30 PM91 °FPassing clouds.3 mph28%30.04 "HgN/A
3:00 PM93 °FPassing clouds.3 mph26%30.04 "HgN/A
2:30 PM91 °FSunny.3 mph28%30.07 "Hg10 mi
2:00 PM90 °FSunny.3 mph31%30.07 "Hg10 mi
1:30 PM88 °FPassing clouds.5 mph38%30.07 "HgN/A
1:00 PM84 °FSunny.3 mph43%30.07 "Hg10 mi
12:30 PM82 °FPassing clouds.3 mph48%30.07 "HgN/A
12:00 PM81 °FPassing clouds.6 mph51%30.07 "HgN/A
11:30 AM81 °FPassing clouds.3 mph51%30.07 "HgN/A
11:00 AM77 °FPassing clouds.7 mph57%30.09 "HgN/A
10:30 AM75 °FPassing clouds.6 mph61%30.07 "HgN/A
10:00 AM75 °FScattered clouds.6 mph61%30.07 "HgN/A
9:30 AM73 °FScattered clouds.8 mph65%30.07 "HgN/A
9:00 AM72 °FScattered clouds.7 mph69%30.07 "HgN/A
8:30 AM70 °FScattered clouds.9 mph73%30.07 "HgN/A
8:00 AM70 °FPassing clouds.7 mph73%30.07 "HgN/A
7:30 AM70 °FPassing clouds.6 mph73%30.07 "HgN/A
7:00 AM70 °FPassing clouds.6 mph78%30.07 "HgN/A
Weather by CustomWeather, © 2015

See weather overviewHow to use our weather pages